• In Schweiz
  • Länderverzeichnis
  • Für 7 Tage
  • Wassertemperatur
  • Satellitenkarten
  • Wetterkarte
  • Widgets
  • user-avatar
    Anmelden

    Stündliche Wetter Sad

    Heute, 25 April, Mittwoch

    Zeit Temperatur Niederschläge Wind Luftdruck Luftfeuchtigkeit
    00:00 +12°C° 0 mm 3 m/S 747 mmHg 87%
    01:00 +11°C° 0 mm 3 m/S 747 mmHg 89%
    02:00 +12°C° 0 mm 2 m/S 747 mmHg 92%
    03:00 +10°C° 0 mm 2 m/S 748 mmHg 93%
    04:00 +10°C° 0 mm 2 m/S 748 mmHg 94%
    05:00 +10°C° 0 mm 2 m/S 748 mmHg 94%
    06:00 +13°C° 0 mm 2 m/S 748 mmHg 88%
    07:00 +14°C° 0 mm 2 m/S 748 mmHg 82%
    08:00 +16°C° 0 mm 2 m/S 749 mmHg 76%
    09:00 +18°C° 0 mm 3 m/S 749 mmHg 68%
    10:00 +19°C° 0 mm 3 m/S 749 mmHg 61%
    11:00 +21°C° 0 mm 4 m/S 749 mmHg 54%
    12:00 +21°C° 0 mm 4 m/S 749 mmHg 50%
    13:00 +22°C° 0 mm 4 m/S 749 mmHg 46%
    14:00 +22°C° 0 mm 4 m/S 749 mmHg 43%
    15:00 +22°C° 0 mm 4 m/S 748 mmHg 43%
    16:00 +22°C° 0 mm 4 m/S 748 mmHg 44%
    17:00 +21°C° 0 mm 3 m/S 748 mmHg 45%
    18:00 +20°C° 0 mm 3 m/S 748 mmHg 48%
    19:00 +19°C° 0 mm 2 m/S 748 mmHg 51%
    20:00 +17°C° 0 mm 2 m/S 748 mmHg 55%
    21:00 +17°C° 0 mm 2 m/S 748 mmHg 56%
    22:00 +16°C° 0 mm 3 m/S 748 mmHg 57%
    23:00 +16°C° 0 mm 3 m/S 748 mmHg 58%

    Morgen, 26 April, Donnerstag

    Zeit Temperatur Niederschläge Wind Luftdruck Luftfeuchtigkeit
    00:00 +15°C° 0 mm 4 m/S 748 mmHg 59%
    01:00 +14°C° 0 mm 4 m/S 748 mmHg 60%
    02:00 +14°C° 0 mm 4 m/S 748 mmHg 61%
    03:00 +14°C° 0 mm 4 m/S 748 mmHg 63%
    04:00 +14°C° 0 mm 4 m/S 748 mmHg 65%
    05:00 +13°C° 0 mm 5 m/S 748 mmHg 67%
    06:00 +15°C° 0 mm 5 m/S 748 mmHg 63%
    07:00 +17°C° 0 mm 6 m/S 748 mmHg 59%
    08:00 +20°C° 0 mm 7 m/S 748 mmHg 55%
    09:00 +21°C° 0 mm 7 m/S 748 mmHg 53%
    10:00 +23°C° 0 mm 7 m/S 748 mmHg 50%
    11:00 +24°C° 0 mm 7 m/S 748 mmHg 47%
    12:00 +26°C° 0 mm 7 m/S 748 mmHg 46%
    13:00 +27°C° 0 mm 7 m/S 748 mmHg 45%
    14:00 +27°C° 0 mm 7 m/S 747 mmHg 44%
    15:00 +27°C° 0 mm 6 m/S 747 mmHg 46%
    16:00 +27°C° 0 mm 5 m/S 747 mmHg 48%
    17:00 +26°C° 0 mm 4 m/S 747 mmHg 51%
    18:00 +24°C° 0,1 mm 3 m/S 748 mmHg 55%
    19:00 +22°C° 0,1 mm 3 m/S 748 mmHg 60%
    20:00 +20°C° 0,1 mm 2 m/S 748 mmHg 65%
    21:00 +19°C° 0,1 mm 2 m/S 748 mmHg 68%
    22:00 +18°C° 0,1 mm 2 m/S 748 mmHg 70%
    23:00 +17°C° 0,1 mm 2 m/S 748 mmHg 73%

    übermorgen, 27 April, Freitag

    Zeit Temperatur Niederschläge Wind Luftdruck Luftfeuchtigkeit
    00:00 +17°C° 0 mm 2 m/S 748 mmHg 75%
    01:00 +16°C° 0 mm 2 m/S 748 mmHg 77%
    02:00 +16°C° 0 mm 3 m/S 748 mmHg 78%
    03:00 +16°C° 0 mm 3 m/S 748 mmHg 79%
    04:00 +14°C° 0 mm 3 m/S 748 mmHg 79%
    05:00 +14°C° 0 mm 3 m/S 748 mmHg 79%
    06:00 +16°C° 0 mm 3 m/S 748 mmHg 73%
    07:00 +18°C° 0 mm 3 m/S 748 mmHg 67%
    08:00 +19°C° 0 mm 3 m/S 748 mmHg 61%
    09:00 +21°C° 0 mm 4 m/S 748 mmHg 56%
    10:00 +22°C° 0 mm 5 m/S 748 mmHg 51%
    11:00 +23°C° 0 mm 5 m/S 747 mmHg 46%
    12:00 +23°C° 0,1 mm 5 m/S 747 mmHg 48%
    13:00 +23°C° 0,1 mm 6 m/S 747 mmHg 50%
    14:00 +23°C° 0,1 mm 6 m/S 747 mmHg 52%
    15:00 +21°C° 0,6 mm 6 m/S 747 mmHg 60%
    16:00 +17°C° 0,6 mm 6 m/S 747 mmHg 69%
    17:00 +15°C° 0,6 mm 6 m/S 748 mmHg 77%
    18:00 +14°C° 0,1 mm 5 m/S 748 mmHg 79%
    19:00 +13°C° 0,1 mm 4 m/S 749 mmHg 80%
    20:00 +12°C° 0,1 mm 4 m/S 750 mmHg 82%
    21:00 +12°C° 0 mm 3 m/S 750 mmHg 83%
    22:00 +11°C° 0 mm 3 m/S 751 mmHg 85%
    23:00 +12°C° 0 mm 2 m/S 751 mmHg 86%

    28 April, Samstag

    Zeit Temperatur Niederschläge Wind Luftdruck Luftfeuchtigkeit
    00:00 +10°C° 0 mm 3 m/S 751 mmHg 86%
    01:00 +10°C° 0 mm 3 m/S 752 mmHg 86%
    02:00 +10°C° 0 mm 4 m/S 752 mmHg 86%
    03:00 +8°C° 0 mm 4 m/S 752 mmHg 86%
    04:00 +8°C° 0 mm 4 m/S 753 mmHg 86%
    05:00 +7°C° 0 mm 4 m/S 753 mmHg 86%
    06:00 +10°C° 0 mm 4 m/S 753 mmHg 78%
    07:00 +12°C° 0 mm 4 m/S 754 mmHg 71%
    08:00 +13°C° 0 mm 4 m/S 754 mmHg 63%
    09:00 +14°C° 0 mm 4 m/S 755 mmHg 55%
    10:00 +17°C° 0 mm 4 m/S 755 mmHg 48%
    11:00 +18°C° 0 mm 4 m/S 755 mmHg 41%
    12:00 +19°C° 0 mm 4 m/S 755 mmHg 39%
    13:00 +19°C° 0 mm 4 m/S 755 mmHg 37%
    14:00 +20°C° 0 mm 3 m/S 755 mmHg 35%
    15:00 +20°C° 0 mm 3 m/S 755 mmHg 36%
    16:00 +20°C° 0 mm 3 m/S 755 mmHg 38%
    17:00 +19°C° 0 mm 3 m/S 755 mmHg 39%
    18:00 +18°C° 0 mm 2 m/S 755 mmHg 44%
    19:00 +16°C° 0 mm 2 m/S 756 mmHg 48%
    20:00 +15°C° 0 mm 1 m/S 756 mmHg 52%
    21:00 +14°C° 0 mm 1 m/S 756 mmHg 54%
    22:00 +14°C° 0 mm 1 m/S 756 mmHg 56%
    23:00 +13°C° 0 mm 1 m/S 757 mmHg 58%

    29 April, Sonntag

    Zeit Temperatur Niederschläge Wind Luftdruck Luftfeuchtigkeit
    00:00 +13°C° 0 mm 1 m/S 757 mmHg 60%
    01:00 +12°C° 0 mm 1 m/S 757 mmHg 61%
    02:00 +12°C° 0 mm 1 m/S 757 mmHg 63%
    03:00 +12°C° 0 mm 1 m/S 757 mmHg 65%
    04:00 +10°C° 0 mm 2 m/S 757 mmHg 66%
    05:00 +10°C° 0 mm 2 m/S 757 mmHg 68%
    06:00 +13°C° 0 mm 2 m/S 757 mmHg 62%
    07:00 +15°C° 0 mm 2 m/S 758 mmHg 56%
    08:00 +17°C° 0 mm 2 m/S 758 mmHg 51%
    09:00 +18°C° 0 mm 2 m/S 758 mmHg 47%
    10:00 +19°C° 0 mm 2 m/S 758 mmHg 43%
    11:00 +21°C° 0 mm 2 m/S 757 mmHg 39%
    12:00 +21°C° 0 mm 2 m/S 757 mmHg 37%
    13:00 +23°C° 0 mm 2 m/S 757 mmHg 35%
    14:00 +24°C° 0 mm 2 m/S 756 mmHg 34%
    15:00 +24°C° 0 mm 2 m/S 756 mmHg 35%
    16:00 +24°C° 0 mm 2 m/S 756 mmHg 36%
    17:00 +23°C° 0 mm 2 m/S 755 mmHg 37%
    18:00 +21°C° 0 mm 2 m/S 755 mmHg 41%
    19:00 +19°C° 0 mm 2 m/S 755 mmHg 45%
    20:00 +17°C° 0 mm 2 m/S 755 mmHg 49%
    21:00 +17°C° 0 mm 2 m/S 755 mmHg 52%
    22:00 +16°C° 0 mm 2 m/S 755 mmHg 55%
    23:00 +15°C° 0 mm 2 m/S 755 mmHg 57%

    30 April, Montag

    Zeit Temperatur Niederschläge Wind Luftdruck Luftfeuchtigkeit
    00:00 +15°C° 0 mm 2 m/S 755 mmHg 60%
    01:00 +14°C° 0 mm 2 m/S 755 mmHg 62%
    02:00 +14°C° 0 mm 2 m/S 755 mmHg 64%
    03:00 +13°C° 0 mm 2 m/S 755 mmHg 65%
    04:00 +13°C° 0 mm 2 m/S 755 mmHg 67%
    05:00 +13°C° 0 mm 2 m/S 755 mmHg 68%
    06:00 +14°C° 0 mm 3 m/S 755 mmHg 63%
    07:00 +17°C° 0 mm 3 m/S 755 mmHg 57%
    08:00 +19°C° 0 mm 4 m/S 755 mmHg 51%
    09:00 +20°C° 0 mm 4 m/S 755 mmHg 47%
    10:00 +22°C° 0 mm 4 m/S 754 mmHg 42%
    11:00 +23°C° 0 mm 4 m/S 754 mmHg 38%
    12:00 +25°C° 0 mm 4 m/S 754 mmHg 36%
    13:00 +26°C° 0 mm 4 m/S 753 mmHg 35%
    14:00 +26°C° 0 mm 4 m/S 753 mmHg 33%
    15:00 +26°C° 0 mm 4 m/S 753 mmHg 36%
    16:00 +26°C° 0 mm 3 m/S 752 mmHg 38%
    17:00 +25°C° 0 mm 3 m/S 752 mmHg 41%
    18:00 +22°C° 0 mm 3 m/S 752 mmHg 45%
    19:00 +20°C° 0 mm 3 m/S 752 mmHg 49%
    20:00 +18°C° 0 mm 3 m/S 752 mmHg 53%
    21:00 +18°C° 0 mm 3 m/S 752 mmHg 56%
    22:00 +17°C° 0 mm 3 m/S 752 mmHg 58%
    23:00 +16°C° 0 mm 3 m/S 752 mmHg 60%
    Mehr zeigen